AO-07 1 07530U 74089B 24053.60917547 -.00000034 00000-0 79743-4 0 9998 2 07530 101.9733 47.1972 0011977 305.9517 164.7724 12.53672494254551 UO-11 1 14781U 84021B 24053.84155448 .00001903 00000-0 22307-3 0 9999 2 14781 97.6912 26.7233 0009802 95.9585 264.2748 14.86084730152350 AO-16 1 20439U 90005D 24053.60459278 .00000270 00000-0 11492-3 0 9996 2 20439 98.8997 55.4987 0010595 184.8418 291.2901 14.33286951780777 LO-19 1 20442U 90005G 24053.49674287 .00000273 00000-0 11578-3 0 9994 2 20442 98.8745 40.7769 0012017 159.9261 200.2397 14.33444110781208 AO-27 1 22825U 93061C 24053.14589487 .00000164 00000-0 80530-4 0 9999 2 22825 98.8065 104.6248 0009316 62.1819 298.0306 14.30430542586023 IO-26 1 22826U 93061D 24053.57467174 .00000187 00000-0 88793-4 0 9999 2 22826 98.8010 104.9205 0009664 47.4867 312.7130 14.30805223586363 FO-29 1 24278U 96046B 24053.47922371 .00000019 00000-0 52008-4 0 9996 2 24278 98.5681 3.3675 0350949 127.8930 235.4499 13.53172769358787 NOAA-15 1 25338U 98030A 24053.78742522 .00000254 00000-0 12355-3 0 9992 2 25338 98.5824 83.2576 0009378 305.1738 54.8564 14.26499309340987 GO-32 1 25397U 98043D 24053.51399702 .00000163 00000-0 90750-4 0 9995 2 25397 98.9069 18.6059 0002202 112.9331 247.2079 14.23989972330959 ISS 1 25544U 98067A 24053.70228595 .00096547 00000-0 16624-2 0 9994 2 25544 51.6407 167.6750 0001939 302.9450 161.0046 15.50280903440641 NO-44 1 26931U 01043C 24053.62041644 .00000231 00000-0 11892-3 0 9990 2 26931 67.0499 270.0873 0005181 274.9034 85.1476 14.31128980169418 SO-50 1 27607U 02058C 24053.82148896 .00002448 00000-0 35046-3 0 9996 2 27607 64.5537 215.9730 0038421 162.2697 197.9758 14.78372003139477 CO-55 1 27844U 03031E 24053.57955352 .00000543 00000-0 25979-3 0 9994 2 27844 98.6798 62.2204 0010783 117.4613 242.7663 14.23090337 71349 CO-57 1 27848U 03031J 24053.46929980 .00000452 00000-0 22205-3 0 9992 2 27848 98.6831 62.4184 0010522 132.0198 228.1877 14.22556820 71081 RS-22 1 27939U 03042A 24053.82598539 .00001833 00000-0 31822-3 0 9996 2 27939 98.2727 208.3572 0013183 66.9318 69.4018 14.69386470 91335 NOAA-18 1 28654U 05018A 24053.80092107 .00000278 00000-0 17250-3 0 9995 2 28654 98.8835 131.6992 0014575 34.3113 325.8998 14.13129357966962 CO-58 1 28895U 05043F 24053.58732856 .00002323 00000-0 42323-3 0 9999 2 28895 98.1809 189.4472 0015982 6.5073 353.6335 14.66944205977732 CO-65 1 32785U 08021C 24053.49535937 .00005574 00000-0 51363-3 0 9997 2 32785 97.7403 20.0400 0011330 0.5107 359.6123 14.95046410858255 AAUSAT2 1 32788U 08021F 24053.48547967 .00017654 00000-0 10383-2 0 9993 2 32788 97.5861 33.9790 0005353 190.7433 169.3684 15.11709689860817 CO-66 1 32791U 08021J 24053.44873448 .00008989 00000-0 70708-3 0 9998 2 32791 97.6831 25.5911 0005746 336.9950 23.1015 15.01059379859147 RS-30 1 32953U 08025A 24053.82327847 .00000032 00000-0 15928-3 0 9995 2 32953 82.5068 161.2343 0018746 359.8451 0.2620 12.43135965714791 PRISM 1 33493U 09002B 24053.57735766 .00016255 00000-0 90149-3 0 9998 2 33493 98.2237 91.6935 0012287 283.8636 76.1226 15.13804675821526 NOAA-19 1 33591U 09005A 24053.80711778 .00000252 00000-0 15968-3 0 9999 2 33591 99.0644 108.3112 0012957 256.1433 103.8297 14.12932739775335 SRMSAT 1 37841U 11058D 24053.56357672 .00000536 00000-0 14842-3 0 9999 2 37841 19.9711 136.0614 0011664 263.9399 125.3532 14.11041923638434 HRBE 1 37855U 11061F 24053.28326374 .00060493 00000-0 10031-2 0 9995 2 37855 101.6842 165.7355 0077517 341.4281 18.4128 15.48529893674942 RS-40 1 38735U 12041C 24053.79953936 .00000049 00000-0 28194-3 0 9999 2 38735 82.4714 241.8081 0018024 109.9844 250.3178 12.42603916524942 ZACUBE-1 1 39417U 13066B 24053.42264887 .00004575 00000-0 49674-3 0 9999 2 39417 97.7203 12.2344 0052155 181.0811 179.0302 14.87615717554360 Delfi-N3xt 1 39428U 13066N 24053.49777161 .00005285 00000-0 70656-3 0 9995 2 39428 97.8399 335.0796 0106310 102.7787 258.5328 14.76002647549018 GOMX-1 1 39430U 13066Q 24053.79635763 .00002889 00000-0 49351-3 0 9997 2 39430 97.7506 295.1215 0140499 259.3933 99.1420 14.63343702546161 LO-74 1 39440U 13066AA 24053.43230563 .00004879 00000-0 59689-3 0 9994 2 39440 97.8019 359.8138 0070118 292.8174 66.5644 14.81930682551186 AO-73 1 39444U 13066AE 24053.45151313 .00005741 00000-0 58676-3 0 9999 2 39444 97.7060 15.1323 0050481 163.1220 197.1692 14.90002209552861 SPROUT 1 39770U 14029E 24053.83163788 .00059477 00000-0 26230-2 0 9997 2 39770 98.0033 197.0066 0005198 229.5511 130.5270 15.21547233529982 DTUSAT-2 1 40030U 14033W 24053.81006121 .00007289 00000-0 64835-3 0 9996 2 40030 97.9961 3.4848 0010406 166.8776 193.2717 14.96358733525943 EO-80 1 40032U 14033Y 24053.58174217 .00006453 00000-0 57412-3 0 9999 2 40032 97.9942 3.2657 0010177 172.3226 187.8152 14.96394686525373 HODOYOSHI-1 1 40299U 14070B 24053.75997966 .00019003 00000-0 44624-3 0 9994 2 40299 97.1581 115.7055 0009985 95.4855 264.7532 15.42016708517307 XW-2C 1 40906U 15049H 24053.83019319 .00021920 00000-0 63514-3 0 9992 2 40906 97.4878 68.2309 0009516 10.1940 349.9495 15.35534154466733 XW-2D 1 40907U 15049J 24053.75988027 .00029115 00000-0 73038-3 0 9991 2 40907 97.4836 69.7293 0007618 3.3519 356.7776 15.39957434466881 LILACSAT-2 1 40908U 15049K 24053.77903339 .00008746 00000-0 36541-3 0 9992 2 40908 97.5279 61.8602 0014168 42.3895 317.8434 15.23775913465903 XW-2E 1 40909U 15049L 24053.73287784 .00243409 00000-0 14258-2 0 9995 2 40909 97.4225 81.4078 0001236 207.0930 153.0272 15.77637576467993 XW-2F 1 40910U 15049M 24053.63309041 .00213886 00000-0 13912-2 0 9999 2 40910 97.4341 80.4981 0001181 240.7921 119.3226 15.75322217467691 XW-2B 1 40911U 15049N 24053.80705857 .00028527 00000-0 72649-3 0 9993 2 40911 97.4813 70.0177 0007786 4.3387 355.7925 15.39499683466766 IO-86 1 40931U 15052B 24006.28856983 .00001263 00000-0 84248-4 0 9993 2 40931 6.0004 76.3799 0013541 291.8204 68.0484 14.77555377447321 ChubuSat-2 1 41338U 16012B 24053.40773170 .00005254 00000-0 33906-3 0 9992 2 41338 31.0025 55.0390 0011933 158.1290 201.9858 15.06674996440113 ChubuSat-3 1 41339U 16012C 24053.37943468 .00004879 00000-0 31794-3 0 9993 2 41339 31.0089 53.0877 0011978 163.5326 196.5701 15.06270598440005 Horyu-4 1 41340U 16012D 24053.55341605 .00011576 00000-0 63224-3 0 9995 2 41340 31.0039 7.2095 0011546 241.2811 118.6668 15.13022094440606 e-st@r-II 1 41459U 16025D 24053.73013089 .00118611 00000-0 13439-2 0 9992 2 41459 98.1464 289.6337 0054064 292.5845 66.9695 15.60179559431499 Lapan A3 1 41603U 16040E 24053.80113185 .00003257 00000-0 13619-3 0 9996 2 41603 97.1504 72.7846 0013309 143.5605 216.6542 15.24194288425647 Pratham 1 41783U 16059A 24053.54385345 .00001123 00000-0 21868-3 0 9990 2 41783 97.8475 78.2788 0033344 29.7253 330.5836 14.64538736395619 CAS-2T 1 41847U 16066G 24053.48952560 .00002448 00000-0 36611-3 0 9994 2 41847 98.4734 125.6356 0356327 165.4651 195.7116 14.40750885382839 CAS-4B 1 42759U 17034B 24053.77536523 .00013094 00000-0 54160-3 0 9990 2 42759 43.0141 156.5583 0012653 300.0128 59.9467 15.23799996369778 CAS-4A 1 42761U 17034D 24053.72013790 .00014559 00000-0 59936-3 0 9997 2 42761 43.0117 155.3054 0012521 301.9471 58.0161 15.23888282369777 NIUSat 1 42766U 17036B 24053.59741082 .00126860 00000-0 11069-2 0 9994 2 42766 97.1194 87.6659 0003265 233.9787 126.1172 15.68573697371406 Aalto 1 1 42775U 17036L 24053.82256579 .00044214 00000-0 76365-3 0 9995 2 42775 97.1237 83.5276 0004453 267.2243 92.8500 15.50857938371140 URSA MAIOR 1 42776U 17036M 24053.58854524 .00061002 00000-0 83560-3 0 9992 2 42776 97.1220 85.9147 0003664 249.7211 110.3652 15.57189861371266 Max Valier Sat 1 42778U 17036P 24053.61818318 .00053920 00000-0 70986-3 0 9997 2 42778 97.1235 89.9928 0003435 250.1061 109.9825 15.58285315371448 D-SAT 1 42794U 17036AF 24053.84569642 .00005668 00000-0 41885-3 0 9995 2 42794 97.4881 40.0328 0110555 175.5930 184.6295 14.98767426363460 TechnoSat 1 42829U 17042E 24053.80492287 .00004460 00000-0 40695-3 0 9994 2 42829 97.3812 241.4403 0014352 101.1359 259.1477 14.95474256359920 AO-91 1 43017U 17073E 24053.56799738 .00009602 00000-0 62418-3 0 9992 2 43017 97.5972 293.2526 0217886 319.8205 38.7076 14.90705726338427 TianYi 2 1 43155U 18008A 24053.81942310 .00046731 00000-0 11004-2 0 9996 2 43155 97.2591 107.2067 0009783 131.3053 228.9038 15.41753625337036 Zhou Enlai 1 43156U 18008B 24053.77553602 .00056934 00000-0 11961-2 0 9992 2 43156 97.2630 108.0086 0007524 132.0635 228.1256 15.45125666336996 TianYi 6 1 43158U 18008D 24053.68066178 .00031915 00000-0 91736-3 0 9992 2 43158 97.2720 102.9587 0009061 139.0757 221.1168 15.35710510336685 S-Net D 1 43186U 18014G 24053.47071735 .00005256 00000-0 39443-3 0 9998 2 43186 97.6031 317.4190 0011669 44.8054 315.4111 15.03008817331111 S-Net B 1 43187U 18014H 24053.60566146 .00005549 00000-0 41612-3 0 9995 2 43187 97.6035 317.4921 0012351 39.1470 321.0646 15.03004206331132 S-Net A 1 43188U 18014J 24053.47195406 .00005338 00000-0 40043-3 0 9991 2 43188 97.6041 317.4648 0012246 40.5826 319.6310 15.03009170331114 S-Net C 1 43189U 18014K 24053.60797703 .00005654 00000-0 42370-3 0 9991 2 43189 97.6054 317.5218 0013869 31.6106 328.5949 15.03005131329686 CubeBel-1 1 43666U 18083E 24053.32917075 .00540050 11587-3 16806-2 0 9995 2 43666 97.3318 96.6510 0003425 241.1758 118.9173 15.91570926296032 Changshagaoxin 1 43669U 18083H 24053.80540138 .00106446 00000-0 12419-2 0 9991 2 43669 97.3472 88.5016 0001280 300.0276 60.0855 15.61285621295635 Ten-Koh 1 43677U 18084G 24053.38686627 .00002779 00000-0 25979-3 0 9998 2 43677 98.0432 203.7390 0015284 43.6997 316.5430 14.94914333289414 PO-101 1 43678U 18084H 24053.74846674 .00001959 00000-0 18643-3 0 9998 2 43678 98.0526 208.5254 0010123 56.5319 303.6867 14.94612602289672 QO-100 1 43700U 18090A 24053.55072962 .00000136 00000-0 00000-0 0 9992 2 43700 0.0221 144.6355 0001197 194.2188 37.1925 1.00272959 19192 MinXSS-2 1 43758U 18099A 24053.73794873 .00008405 00000-0 57726-3 0 9993 2 43758 97.5698 118.0505 0017659 356.0902 4.0184 15.06089519285394 AO-95 1 43770U 18099N 24053.12269406 .00007005 00000-0 51639-3 0 9991 2 43770 97.5619 113.5588 0015129 39.5339 320.6987 15.03524883285112 RANGE-B 1 43772U 18099Q 24053.68177276 .00008999 00000-0 61136-3 0 9993 2 43772 97.5406 117.2860 0004618 316.0462 44.0398 15.06588990285310 RANGE-A 1 43773U 18099R 24053.42288175 .00004338 00000-0 34404-3 0 9998 2 43773 97.5234 110.3806 0019100 13.0682 347.1034 15.00898284285064 MOVE-II 1 43780U 18099Y 24053.43325708 .00013513 00000-0 81432-3 0 9999 2 43780 97.5382 117.8742 0007818 26.6349 333.5281 15.10872459285420 SNUSat 2 1 43782U 18099AA 24053.67998859 .00005505 00000-0 41350-3 0 9997 2 43782 97.5322 113.8601 0014637 344.0933 15.9831 15.02916464285214 SnugLite 1 43784U 18099AC 24053.11317296 .00007490 00000-0 54841-3 0 9992 2 43784 97.5126 112.7374 0004716 357.3325 2.7875 15.03836632285189 ITASat 1 1 43786U 18099AE 24053.70794675 .00005809 00000-0 44117-3 0 9996 2 43786 97.5286 114.3003 0017986 26.5815 333.6328 15.02428882285224 EAGLET 1 1 43790U 18099AJ 24053.39592301 .00004023 00000-0 31571-3 0 9995 2 43790 97.5375 114.4418 0015644 16.7834 343.3905 15.01389997284893 ESEO 1 43792U 18099AL 24053.61028198 .00001865 00000-0 15883-3 0 9999 2 43792 97.5340 112.1566 0012615 3.9670 356.1651 14.98907891284880 CSIM 1 43793U 18099AM 24053.15220972 .00012824 00000-0 77140-3 0 9994 2 43793 97.5447 119.2208 0013778 357.0709 3.0438 15.10898578285234 JO-97 1 43803U 18099AX 24053.42650070 .00007141 00000-0 50919-3 0 9993 2 43803 97.5385 114.8121 0009907 347.5623 12.5357 15.04822924285274 Suomi 100 1 43804U 18099AY 24053.42752047 .00006728 00000-0 48648-3 0 9997 2 43804 97.5457 114.6195 0015956 342.5760 17.4917 15.04257021285267 CHOMPTT 1 43855U 18104G 24053.55982519 .00114088 00000-0 10753-2 0 9997 2 43855 85.0218 353.0600 0011886 89.9034 270.3594 15.66616307289364 ISAT 1 43879U 18111D 24053.68434863 .00010953 00000-0 72769-3 0 9991 2 43879 97.6299 320.1781 0015040 38.8926 321.3380 15.07280780279986 UWE-4 1 43880U 18111E 24053.67748169 .00009560 00000-0 64561-3 0 9992 2 43880 97.6216 320.4520 0018908 46.6384 313.6415 15.06658411280021 Sparrow 1 43881U 18111F 24053.69188021 .00011056 00000-0 72632-3 0 9991 2 43881 97.6369 321.8830 0012430 76.4967 283.7645 15.07723203280061 AISTechSat 3 1 44103U 19018AB 24053.77332208 .00147944 00000-0 10980-2 0 9996 2 44103 97.2056 119.0246 0003215 74.9623 285.1997 15.72417370273389 AISat 1 1 44104U 19018AC 24053.81179775 .00062109 00000-0 57739-3 0 9993 2 44104 97.3637 157.6804 0024666 52.8301 307.5206 15.66824402274660 Prox-1 1 44339U 19036A 24053.82070991 .00010305 00000-0 18824-2 0 9996 2 44339 23.9979 245.9045 0008552 153.2135 206.8801 14.64009293248392 SONATE 1 44400U 19038Q 24053.48237515 .00015543 00000-0 55476-3 0 9990 2 44400 97.7081 42.9445 0019023 148.7008 211.5368 15.28793177256376 BeeSat 9 1 44412U 19038AC 24053.42882699 .00078989 00000-0 12238-2 0 9997 2 44412 97.6858 51.1683 0014039 116.9541 243.3147 15.53649032256654 JAISAT-1 1 44419U 19038F 24053.74916602 .00076233 00000-0 11961-2 0 9993 2 44419 97.6852 52.5980 0013480 116.2168 244.0471 15.53319279257080 Taurus 1 1 44530U 19059C 24053.78594029 .00005648 00000-0 13702-2 0 9996 2 44530 98.5632 171.1934 0011982 50.4595 309.7657 14.53274849234997 Duchifat 3 1 44854U 19089C 24053.26955866 .00013276 00000-0 75532-3 0 9997 2 44854 36.9596 30.4378 0010215 226.0698 133.9205 15.12224653230696 OPS-SAT 1 44878U 19092F 24053.50717710 .00067534 00000-0 95200-3 0 9998 2 44878 97.4555 253.5386 0006253 301.0030 59.0610 15.56373681232398 TO-108 1 44881U 19093C 24053.77124931 .00001274 00000-0 16187-3 0 9995 2 44881 97.8376 132.7809 0014114 345.6206 14.4604 14.83300585225931 FloripaSat 1 1 44885U 19093G 24053.79399036 .00004584 00000-0 49803-3 0 9999 2 44885 97.8478 137.3876 0012517 341.3450 18.7306 14.88541806226195 RS-44 1 44909U 19096E 24053.40326375 .00000005 00000-0 -20290-4 0 9998 2 44909 82.5248 181.6933 0216669 322.1456 36.4574 12.79726734194169 BY70-2 1 45857U 20042B 24053.75885794 .00046778 00000-0 30180-2 0 9990 2 45857 97.9159 142.1568 0008186 248.1532 111.8824 15.08085811197049 UPMSat 2 1 46276U 20061E 24053.46789384 .00013181 00000-0 46054-3 0 9993 2 46276 97.3134 121.3659 0001872 131.1088 229.0314 15.29685984192461 AmicalSat 1 46287U 20061R 24053.13219171 .00021797 00000-0 76101-3 0 9999 2 46287 97.3663 120.9800 0000973 300.5448 59.5696 15.29604442191789 SALSAT 1 46495U 20068K 24053.60027353 .00007158 00000-0 43060-3 0 9991 2 46495 97.8028 10.2777 0014184 356.8304 3.2833 15.11078946186843 AO-109 1 47311U 21002C 24053.59977520 .00144591 00000-0 11673-2 0 9993 2 47311 60.6702 159.5942 0024873 66.7591 293.6133 15.69689243173104 ExoCube 2 1 47319U 21002L 24053.56535189 .00125708 00000-0 11519-2 0 9997 2 47319 60.6681 163.8683 0025922 69.0546 291.3332 15.66634437172994 UVSQ-SAT 1 47438U 21006AB 24053.70696808 .00030872 00000-0 86193-3 0 9993 2 47438 97.3469 113.5978 0006491 268.9765 91.0736 15.36649356170948 YUSAT 1 1 47439U 21006AC 24053.12051548 .00048081 00000-0 10231-2 0 9996 2 47439 97.3461 115.5052 0005862 261.5489 98.5095 15.44802096171019 SOMP 2b 1 47445U 21006AJ 24053.73681505 .00026924 00000-0 79234-3 0 9993 2 47445 97.3430 112.3655 0006420 278.6834 81.3682 15.35025985170891 IDEASSat 1 47458U 21006AX 24053.42443334 .00023280 00000-0 72068-3 0 9999 2 47458 97.3533 112.7871 0006032 280.3271 79.7291 15.33453613170806 CubeSX-Sirius-HSE 1 47951U 21022V 24053.80025363 .00015918 00000-0 72677-3 0 9990 2 47951 97.4747 312.8412 0015661 176.3687 183.7665 15.20570864161017 CubeSX-HSE 1 47952U 21022W 24053.76125669 .00014859 00000-0 67702-3 0 9992 2 47952 97.4748 312.8762 0015617 175.4858 184.6521 15.20656222161012 KSU-Cubesat 1 47954U 21022Y 24053.66679701 .00018531 00000-0 79773-3 0 9996 2 47954 97.4755 313.6695 0014809 172.0296 188.1179 15.22560294160772 GRBAlpha 1 47959U 21022AD 24053.79895424 .00016152 00000-0 73338-3 0 9995 2 47959 97.4750 313.0413 0015441 175.7017 184.4354 15.20760517159846 Orbicraft-Zorkiy 1 47960U 21022AE 24053.78863306 .00016842 00000-0 73352-3 0 9992 2 47960 97.4789 313.9528 0014967 172.3728 187.7738 15.22182817160577 STECCO 1 47962U 21022AG 24053.81581111 .00051507 00000-0 13951-2 0 9994 2 47962 97.4757 319.8651 0010362 136.6144 223.5918 15.37444065160296 MO-110 1 47964U 21022AJ 24053.52549241 .00057023 00000-0 14380-2 0 9998 2 47964 97.4773 320.7131 0011822 134.0627 226.1594 15.39600871160313 TUBIN 1 48900U 21059X 24053.79488875 .00014738 00000-0 57819-3 0 9994 2 48900 97.6266 195.5972 0008117 126.2073 233.9916 15.25816419147305 IT-SPINS 1 49017U 21013G 24053.84565762 .01616838 21380-2 12732-2 0 9991 2 49017 51.5626 257.4863 0010707 255.2319 104.7510 16.14333143148825 LEDSAT 1 49069U 21073D 24053.71128968 .00012078 00000-0 55342-3 0 9997 2 49069 97.4518 125.9483 0020355 332.2597 27.7551 15.20435846138885 CUTE 1 49263U 21088D 24053.71628870 .00012910 00000-0 69027-3 0 9996 2 49263 97.5133 120.8184 0016666 119.5791 240.7104 15.15085673132135 TeikyoSat 4 1 49396U 21102B 24053.61069090 .00002968 00000-0 22120-3 0 9997 2 49396 97.4787 102.5462 0012692 313.1156 46.9007 15.03579221125385 Z-Sat 1 49399U 21102E 24053.79424965 .00003935 00000-0 26528-3 0 9996 2 49399 97.4502 104.0486 0019315 295.6766 64.2467 15.07076988125600 KOSEN 1 1 49402U 21102H 24053.65031150 .00004930 00000-0 30945-3 0 9990 2 49402 97.4424 104.9792 0017982 280.3575 79.5628 15.09611324125704 HO-113 1 50466U 21131B 24053.81208676 .00000770 00000-0 26167-3 0 9990 2 50466 98.5327 139.4393 0005290 109.3970 250.7790 14.39379121113403 Tevel-3 1 50988U 22002E 24053.79959794 .00052974 00000-0 11977-2 0 9993 2 50988 97.3976 126.2785 0004843 63.6431 296.5314 15.42982002117143 Tevel-8 1 50989U 22002F 24053.76664075 .00050748 00000-0 11521-2 0 9998 2 50989 97.3992 126.3295 0004755 61.6649 298.5078 15.42870086117136 Tevel-5 1 50998U 22002Q 24053.73823846 .00057922 00000-0 12213-2 0 9998 2 50998 97.3969 127.0542 0005297 53.8680 306.3058 15.45028555117194 Tevel-6 1 50999U 22002R 24053.73880973 .00058493 00000-0 12352-2 0 9991 2 50999 97.3968 127.0390 0005288 53.5721 306.6015 15.44981845117193 Tevel-1 1 51013U 22002AF 24053.75515973 .00051491 00000-0 11686-2 0 9996 2 51013 97.3967 126.1244 0004674 63.7087 296.4640 15.42875944117138 IRIS-A 1 51044U 22002BN 24053.40652745 .00015065 00000-0 57934-3 0 9995 2 51044 97.4009 120.7052 0007982 84.2935 275.9213 15.26470005116736 Tevel-7 1 51062U 22002CG 24053.76138759 .00051024 00000-0 11554-2 0 9990 2 51062 97.3985 126.2954 0004742 62.3068 297.8660 15.42945627117134 Tevel-4 1 51063U 22002CH 24053.78326652 .00050882 00000-0 11592-2 0 9997 2 51063 97.3988 126.2579 0004745 62.7596 297.4134 15.42764367117136 Tevel-2 1 51069U 22002CP 24053.79946451 .00052350 00000-0 11827-2 0 9992 2 51069 97.3972 126.2449 0004777 63.4769 296.6968 15.43007539117145 SO-115 1 51080U 22002DA 24052.18721971 .00088616 00000-0 14255-2 0 9997 2 51080 97.4253 131.4993 0005338 86.7539 273.4324 15.52664819117161 SO-114 1 51081U 22002DB 24053.46253241 .00089187 00000-0 13762-2 0 9996 2 51081 97.4254 132.9206 0004781 81.7535 278.4261 15.53822157117378 OreSat0 1 52017U 22026K 24053.57557156 .00038579 00000-0 98962-3 0 9991 2 52017 97.5050 63.9687 0012856 275.8108 84.1672 15.39160421107856 Planetum 1 1 52738U 22057G 24053.57936533 .00029114 00000-0 95367-3 0 9996 2 52738 97.5525 176.6064 0005627 197.0009 163.1044 15.31602534 96820 Foresail-1 1 52766U 22057AL 24053.30895181 .00016439 00000-0 62657-3 0 9993 2 52766 97.5666 176.7017 0010381 174.9090 185.2255 15.26730776 96747 SNUGLITE 2 1 52899U 22065F 24053.61827900 .00001903 00000-0 40364-3 0 9998 2 52899 98.0984 197.1758 0008347 147.8414 212.3298 14.60257946 87390 IO-117 1 53106U 22080B 24052.39186089 -.00000003 00000-0 00000-0 0 9998 2 53106 70.1294 233.0989 0008303 129.7166 230.4226 6.42557771 37766 SelfieSat 1 53951U 22057BC 24053.32481636 .00044655 00000-0 11999-2 0 9991 2 53951 97.5555 178.4230 0006383 193.7569 166.3502 15.37760484 96896 FO-118 1 54684U 22167C 24053.82908914 .00022366 00000-0 94706-3 0 9998 2 54684 97.5876 196.6955 0011116 188.6461 171.4585 15.23128344 66709 SSS-2B 1 56184U 23054G 24053.75462791 .00023822 00000-0 75388-3 0 9994 2 56184 97.3849 311.4419 0006527 217.0404 143.0388 15.32743729 48414 CIRBE 1 56188U 23054L 24053.46006619 .00040437 00000-0 10772-2 0 9995 2 56188 97.3781 311.7712 0005411 197.7943 162.3113 15.38055660 48422 INSPIRE-Sat 7 1 56211U 23054AK 24053.62877660 .00039059 00000-0 99440-3 0 9990 2 56211 97.3819 312.8692 0009373 184.9535 175.1620 15.39427908 48509 RoseyCubesat 1 1 56212U 23054AL 24053.76596077 .00045290 00000-0 10943-2 0 9990 2 56212 97.3821 313.3187 0009356 181.0117 179.1113 15.40987246 48546 SO-120 1 56992U 23084BU 24053.58452518 .00021688 00000-0 97957-3 0 9995 2 56992 97.5193 172.4812 0015070 70.8192 289.4673 15.20883327 38573 MRC-100 1 56993U 23084BV 24053.59920318 .00025073 00000-0 11016-2 0 9998 2 56993 97.5196 172.6335 0014513 69.8753 290.4042 15.21805848 38598 UmKA 1 (RS40S) 1 57172U 23091G 24053.77466240 .00005018 00000-0 34838-3 0 9990 2 57172 97.6292 107.0386 0017939 151.4667 208.7545 15.05889571 36114 CubeBel-2 (EU11S) 1 57175U 23091K 24053.82082330 .00007149 00000-0 49282-3 0 9999 2 57175 97.6304 106.9663 0016206 162.7647 197.4133 15.06029286 36113 VERONIKA 1 58261U 23174F 24053.75128392 .00014299 00000-0 73939-3 0 9999 2 58261 97.4730 129.9914 0012268 287.3750 72.6141 15.16302327 16198 KAFASAT 1 58317U 23174BP 24053.76676192 .00017784 00000-0 86631-3 0 9993 2 58317 97.4677 130.2029 0011307 263.8761 96.1185 15.18356345 16219 ENSO 1 58470U 23185J 24053.80922504 .00012746 00000-0 61043-3 0 9994 2 58470 97.4425 122.0515 0013038 327.6511 32.3923 15.19004310 12608 EIRSAT-1 1 58472U 23185L 24053.80753682 .00014256 00000-0 67942-3 0 9997 2 58472 97.4418 122.0445 0012831 328.6097 31.4370 15.19147946 12603 SO-121 1 58567U 23174CY 24053.14792325 .00027502 00000-0 13213-2 0 9993 2 58567 97.4690 129.5162 0014028 276.6387 83.3251 15.18713482 16119 Clark sat-1 (AMBITIOUS) 1 58613U 98067WE 24053.80133028 .00163071 00000-0 15075-2 0 9990 2 58613 51.6349 163.3130 0008778 308.8434 51.1778 15.66461215 10401 BeliefSat-0 1 58695U 24001B 24053.55092185 .00282552 00000-0 80262-3 0 9994 2 58695 9.6650 27.6832 0002937 135.6326 224.4124 15.91204666 8294 /EX